Waukesha, WI

4:48 AM CST on February 24, 2018 (GMT -0600)
Waukesha County

Weather History for KUES - May, 2012

Change the Weather History Date:

Wednesday, May 23, 2012

  Actual Average Record
Temperature  
Mean Temperature 58 °F -  
Max Temperature 73 °F 69 °F 88 °F (1977)
Min Temperature 42 °F 49 °F 32 °F (1963)
Degree Days  
Heating Degree Days 8    
Growing Degree Days 8 (Base 50)    
Moisture  
Dew Point 41 °F    
Average Humidity 60    
Maximum Humidity 82    
Minimum Humidity 33    
Precipitation  
Precipitation 0.00 in - - ()
Sea Level Pressure  
Sea Level Pressure 29.86 in    
Wind  
Wind Speed 3 mph (SE)    
Max Wind Speed 12 mph    
Max Gust Speed -    
Visibility 10 miles    
Events      
Averages and records for this station are not official NWS values.
T = Trace of Precipitation, MM = Missing Value Source: NWS Daily Summary

Daily Weather History Graph

Daily Weather History Graph

Search for Another Location

Airport or City:

Trip Planner

Search our weather history database for the weather conditions in past years. The results will help you decide how hot, cold, wet, or windy it might be!

Date:

Astronomy

May. 23, 2012 Rise Set
Actual Time 5:21 AM CDT 8:18 PM CDT
Civil Twilight 4:48 AM CDT 8:51 PM CDT
Nautical Twilight 4:05 AM CDT 9:34 PM CDT
Astronomical Twilight 3:15 AM CDT 10:25 PM CDT
Moon 7:24 AM CDT (5/23) 10:39 PM CDT (5/23)
Length of Visible Light 16h 03m
Length of Day
14h 56m
Waxing Crescent, 7% of the Moon is Illuminated
May 23
Waxing Crescent
May 28
First Quarter
Jun 4
Full
Jun 11
Last Quarter
Jun 19
New

Hourly Weather History & Observations

Time (CDT) Temp. Windchill Dew Point Humidity Pressure Visibility Wind Dir Wind Speed Gust Speed Precip Events Conditions
12:15 AM 44.6 °F - 37.4 °F 76% 29.95 in 10.0 mi Calm Calm - N/A   Clear
12:35 AM 46.4 °F - 37.4 °F 71% 29.94 in 10.0 mi Calm Calm - N/A   Clear
12:55 AM 46.4 °F - 37.4 °F 71% 29.94 in 10.0 mi Calm Calm - N/A   Clear
1:15 AM 44.6 °F 43.1 °F 37.4 °F 76% 29.93 in 10.0 mi ESE 3.5 mph - N/A   Clear
1:35 AM 44.6 °F - 37.4 °F 76% 29.93 in 10.0 mi Calm Calm - N/A   Clear
1:55 AM 44.6 °F - 37.4 °F 76% 29.93 in 10.0 mi Calm Calm - N/A   Clear
2:15 AM 44.6 °F - 37.4 °F 76% 29.93 in 10.0 mi Calm Calm - N/A   Clear
2:35 AM 44.6 °F - 37.4 °F 76% 29.93 in 10.0 mi Calm Calm - N/A   Clear
2:55 AM 44.6 °F - 37.4 °F 76% 29.93 in 10.0 mi Calm Calm - N/A   Clear
3:15 AM 42.8 °F - 37.4 °F 81% 29.93 in 10.0 mi Calm Calm - N/A   Clear
3:35 AM 42.8 °F - 37.4 °F 81% 29.92 in 10.0 mi Calm Calm - N/A   Clear
3:55 AM 42.8 °F 41.1 °F 37.4 °F 81% 29.91 in 10.0 mi SE 3.5 mph - N/A   Clear
4:15 AM 42.8 °F - 37.4 °F 81% 29.91 in 10.0 mi Calm Calm - N/A   Clear
4:35 AM 44.6 °F 43.1 °F 37.4 °F 76% 29.92 in 10.0 mi South 3.5 mph - N/A   Clear
4:55 AM 44.6 °F - 39.2 °F 81% 29.93 in 10.0 mi Calm Calm - N/A   Clear
5:15 AM 42.8 °F - 37.4 °F 81% 29.93 in 10.0 mi Calm Calm - N/A   Clear
5:35 AM 42.8 °F - 37.4 °F 81% 29.93 in 10.0 mi Calm Calm - N/A   Clear
5:45 AM 44.6 °F - 39.2 °F 81% 29.93 in 10.0 mi Calm Calm - N/A   Clear
6:45 AM 48.2 °F - 42.8 °F 82% 29.92 in 10.0 mi SSE 6.9 mph - N/A   Clear
7:45 AM 55.4 °F - 42.8 °F 63% 29.93 in 10.0 mi SE 8.1 mph - N/A   Clear
8:45 AM 59.0 °F - 42.8 °F 55% 29.93 in 10.0 mi SE 6.9 mph - N/A   Clear
9:45 AM 62.6 °F - 42.8 °F 48% 29.91 in 10.0 mi SE 8.1 mph - N/A   Clear
10:45 AM 66.2 °F - 42.8 °F 43% 29.90 in 10.0 mi SSE 8.1 mph - N/A   Clear
11:45 AM 69.8 °F - 44.6 °F 40% 29.89 in 10.0 mi SSE 6.9 mph - N/A   Clear
12:45 PM 71.6 °F - 42.8 °F 35% 29.86 in 10.0 mi South 6.9 mph - N/A   Clear
1:45 PM 73.4 °F - 42.8 °F 33% 29.85 in 10.0 mi South 11.5 mph - N/A   Clear
2:45 PM 73.4 °F - 46.4 °F 38% 29.82 in 10.0 mi ESE 11.5 mph - N/A   Clear
3:45 PM 73.4 °F - 46.4 °F 38% 29.81 in 10.0 mi SE 11.5 mph - N/A   Clear
4:45 PM 73.4 °F - 46.4 °F 38% 29.78 in 10.0 mi ESE 11.5 mph - N/A   Clear
5:45 PM 71.6 °F - 44.6 °F 38% 29.77 in 10.0 mi SE 10.4 mph - N/A   Clear
6:45 PM 69.8 °F - 42.8 °F 38% 29.76 in 10.0 mi SE 10.4 mph - N/A   Clear
7:45 PM 68.0 °F - 42.8 °F 40% 29.75 in 10.0 mi SE 8.1 mph - N/A   Clear
8:45 PM 64.4 °F - 42.8 °F 45% 29.73 in 10.0 mi ESE 10.4 mph - N/A   Clear
9:15 PM 64.4 °F - 42.8 °F 45% 29.74 in 10.0 mi SE 8.1 mph - N/A   Clear
9:35 PM 64.4 °F - 42.8 °F 45% 29.74 in 10.0 mi SE 10.4 mph - N/A   Clear
9:55 PM 62.6 °F - 42.8 °F 48% 29.74 in 10.0 mi SE 10.4 mph - N/A   Clear
10:15 PM 62.6 °F - 42.8 °F 48% 29.75 in 10.0 mi SE 5.8 mph - N/A   Clear
10:35 PM 60.8 °F - 42.8 °F 52% 29.74 in 10.0 mi SSE 8.1 mph - N/A   Clear
11:15 PM 60.8 °F - 42.8 °F 52% 29.75 in 10.0 mi SSE 9.2 mph - N/A   Clear
11:35 PM 60.8 °F - 44.6 °F 55% 29.75 in 10.0 mi SSE 8.1 mph - N/A   Clear
11:55 PM 60.8 °F - 44.6 °F 55% 29.75 in 10.0 mi SSE 8.1 mph - N/A   Clear